Location: Maiden
(35.5760°N, 81.2120°W)
Time: 12:25:22
(UTC-04:00)

Helios 1B rocket - Pass Details

Date: 14 June 2018
Orbit: 576 x 585 km, 98.2° (Epoch: 20 June)

Event Time Altitude Azimuth Distance (km) Brightness Sun altitude
Rises 23:16:23 0° 8° (N) 2,800 6.7 -23.7°
Reaches altitude 10° 23:18:34 10° 4° (N) 1,896 5.7 -23.9°
Maximum altitude 23:22:36 60° 286° (WNW) 665 2.8 -24.4°
Enters shadow 23:22:58 57° 259° (WSW) 684 2.8 -24.4°
